TimeMST,TemperatureF,Dew PointF,Humidity,Sea Level PressureIn,VisibilityMPH,Wind Direction,Wind SpeedMPH,Gust SpeedMPH,PrecipitationIn,Events,Conditions,WindDirDegrees,DateUTC
12:53 AM,3.9,-0.0,84,30.23,10.0,West,6.9,-,N/A,,Clear,260,2014-01-29 07:53:00
1:53 AM,6.1,1.0,80,30.21,10.0,WSW,5.8,-,N/A,,Clear,250,2014-01-29 08:53:00
2:53 AM,3.0,-0.0,87,30.19,10.0,WNW,4.6,-,N/A,,Clear,300,2014-01-29 09:53:00
3:53 AM,1.9,-0.9,88,30.16,10.0,WNW,5.8,-,N/A,,Clear,300,2014-01-29 10:53:00
4:53 AM,3.9,-0.9,80,30.16,10.0,Calm,Calm,-,N/A,,Clear,0,2014-01-29 11:53:00
5:53 AM,3.0,-0.0,87,30.19,10.0,Calm,Calm,-,N/A,,Clear,0,2014-01-29 12:53:00
6:53 AM,5.0,-0.0,80,30.19,10.0,Calm,Calm,-,N/A,,Clear,0,2014-01-29 13:53:00
7:53 AM,6.1,1.0,80,30.20,10.0,Calm,Calm,-,N/A,,Clear,0,2014-01-29 14:53:00
8:53 AM,14.0,6.1,71,30.17,10.0,Calm,Calm,-,N/A,,Clear,0,2014-01-29 15:53:00
9:53 AM,24.1,10.9,57,30.14,10.0,Calm,Calm,-,N/A,,Clear,0,2014-01-29 16:53:00
10:53 AM,28.9,12.9,51,30.10,10.0,Calm,Calm,-,N/A,,Clear,0,2014-01-29 17:53:00
11:53 AM,30.0,18.0,61,30.06,10.0,SSE,4.6,-,N/A,,Clear,150,2014-01-29 18:53:00
12:53 PM,35.1,19.0,52,29.97,10.0,ENE,3.5,-,N/A,,Clear,70,2014-01-29 19:53:00
1:53 PM,37.0,17.1,44,29.91,10.0,SE,4.6,-,N/A,,Clear,130,2014-01-29 20:53:00
2:53 PM,37.0,21.9,54,29.89,10.0,Calm,Calm,-,N/A,,Clear,0,2014-01-29 21:53:00
3:53 PM,37.0,25.0,62,29.87,10.0,Calm,Calm,-,N/A,,Clear,0,2014-01-29 22:53:00
4:53 PM,35.1,24.1,64,29.84,10.0,ENE,5.8,-,N/A,,Clear,60,2014-01-29 23:53:00
5:53 PM,33.1,21.9,64,29.81,10.0,North,-9999.0,-,N/A,,Clear,0,2014-01-30 00:53:00
6:53 PM,28.9,23.0,78,29.80,10.0,Variable,3.5,-,N/A,,Clear,0,2014-01-30 01:53:00
7:53 PM,28.0,19.9,72,29.78,10.0,North,3.5,-,N/A,,Clear,350,2014-01-30 02:53:00
8:53 PM,28.0,23.0,81,29.71,10.0,West,4.6,-,N/A,,Clear,270,2014-01-30 03:53:00
9:53 PM,30.0,23.0,75,29.62,10.0,Calm,Calm,-,N/A,,Clear,0,2014-01-30 04:53:00
10:53 PM,33.1,24.1,70,29.60,10.0,West,8.1,-,N/A,,Clear,260,2014-01-30 05:53:00
11:53 PM,37.9,25.0,60,29.53,10.0,WSW,11.5,21.9,N/A,,Clear,250,2014-01-30 06:53:00